Overview Statistics Trail Chart Weather Telemetry Raw packets
 

This is the latest recevied weather packets stored in our database for station/object I0UVN-10. If no packets are shown the sender has not sent any weather packets the latest 10 day(s).

<< 13 14 15 16 17 18 19 >>
Time Temp. Humidity Pressure Rain* Wind** Luminosity Snow
1788237668 28.33° C 53% 1020.2 hPa - - - -
1788236452 28.33° C 53% 1020.3 hPa - - - -
1788235252 28.33° C 53% 1020.3 hPa - - - -
1788234052 28.33° C 53% 1020.2 hPa - - - -
1788232851 28.33° C 55% 1020.2 hPa - - - -
1788231651 28.33° C 55% 1020.4 hPa - - - -
1788230490 28.33° C 55% 1020.4 hPa - - - -
1788230451 28.33° C 55% 1020.4 hPa - - - -
1788229251 28.33° C 55% 1020.5 hPa - - - -
1788228051 28.33° C 54% 1020.4 hPa - - - -
1788226851 28.33° C 54% 1020.3 hPa - - - -
1788225651 27.78° C 54% 1020.5 hPa - - - -
1788224450 27.22° C 56% 1020.6 hPa - - - -
1788223840 28.89° C 56% 1019.3 hPa - - - -
1788223250 27.78° C 56% 1020.4 hPa - - - -
1788222047 28.33° C 55% 1020.2 hPa - - - -
1788220847 28.33° C 55% 1020.2 hPa - - - -
1788219663 28.33° C 56% 1020.2 hPa - - - -
1788218486 28.33° C 57% 1020.2 hPa - - - -
1788218447 28.33° C 57% 1020.2 hPa - - - -
1788217247 28.89° C 55% 1020.1 hPa - - - -
1788216282 28.89° C 55% 1019.9 hPa - - - -
1788216047 28.89° C 55% 1019.9 hPa - - - -
1788214847 28.89° C 56% 1020 hPa - - - -
1788213679 28.89° C 55% 1020 hPa - - - -

* Rain since midnight (hover to see other rain measurements)
** Current wind speed in m/s (hover to see current wind gust speed)